FW1746 Weather Reports


Display with metric or nautical units.
time (UTC)temp
F
wind
direction
speed
MPH
gust
MPH
rain 1hr
in
rain 24hr
in
rain mn
in
humidity
%
barometer
mb
20260510084524 52 274 5.0 13.0 0.00 0.03 0.03 51 1014.1
20260510083034 51 261 5.0 14.0 0.00 0.03 0.03 54 1014.1
20260510080020 50 272 1.0 4.0 0.00 0.03 0.03 61 1014.4
20260510074519 49 234 1.0 11.0 0.00 0.03 0.03 63 1014.6
20260510073018 49 212 1.0 13.0 0.00 0.03 0.03 67 1014.7
20260510070026 47 279 6.0 14.0 0.00 0.03 0.03 72 1014.8
20260510064524 46 217 2.0 11.0 0.00 0.03 0.03 75 1015.0
20260510063018 45 259 1.0 13.0 0.00 0.03 0.03 77 1015.1
20260510060009 44 218 2.0 7.0 0.00 0.03 0.03 88 1015.2
20260510054510 44 231 2.0 7.0 0.00 0.03 0.03 89 1015.4
20260510053005 44 215 1.0 9.0 0.00 0.03 0.03 91 1015.3
20260510050009 45 207 2.0 8.0 0.00 0.03 0.03 94 1015.4
20260510044511 45 223 1.0 5.0 0.00 0.03 0.03 94 1015.4
20260510043006 45 192 0.0 2.0 0.00 0.03 0.03 95 1015.6
20260510040010 45 192 0.0 3.0 0.01 0.03 0.03 94 1015.9
20260510034512 45 194 0.0 2.0 0.01 0.03 0.03 94 1016.0
20260510033007 45 193 0.0 2.0 0.02 0.03 0.03 93 1016.1
20260510030059 45 194 0.0 2.0 0.02 0.02 0.02 92 1016.3
20260510024600 46 190 0.0 2.0 0.02 0.02 0.02 92 1016.4
20260510023053 46 190 1.0 4.0 0.01 0.02 0.02 91 1016.6
20260510021651 46 200 0.0 2.0 0.00 0.01 0.01 90 1016.8
20260510020047 46 202 0.0 3.0 0.00 0.01 0.01 90 1016.8
20260510014540 46 207 0.0 3.0 0.00 0.01 0.01 90 1016.9
20260510013041 46 232 0.0 1.0 0.01 0.01 0.01 91 1016.9
20260510011636 46 232 0.0 2.0 0.01 0.01 0.01 90 1017.1
20260510010050 46 232 0.0 1.0 0.01 0.01 0.01 89 1017.2
20260510004533 46 232 0.0 1.0 0.01 0.01 0.01 89 1017.4
20260510003033 46 232 0.0 1.0 0.00 0.00 0.00 89 1017.6
20260510001630 46 231 0.0 2.0 0.00 0.00 0.00 88 1017.8
20260510000028 46 263 0.0 2.0 0.00 0.00 0.00 89 1017.9
20260509234526 46 229 0.0 2.0 0.00 0.00 0.00 88 1018.0
20260509233025 46 232 0.0 2.0 0.00 0.00 0.00 88 1018.1
20260509231624 46 250 0.0 0.0 0.00 0.00 0.00 88 1018.3
20260509230031 46 229 0.0 2.0 0.00 0.00 0.00 88 1018.4
20260509224529 45 232 0.0 2.0 0.00 0.00 0.00 87 1018.5
20260509223027 45 231 0.0 0.0 0.00 0.00 0.00 85 1018.6
20260509221626 46 249 0.0 1.0 0.00 0.00 0.00 84 1018.6
20260509220016 46 250 0.0 1.0 0.00 0.00 0.00 83 1018.7
20260509214516 46 249 0.0 2.0 0.00 0.00 0.00 82 1018.7
20260509213013 47 252 0.0 1.0 0.00 0.00 0.00 82 1018.8
20260509211610 48 266 2.0 4.0 0.00 0.00 0.00 80 1018.9
20260509210008 48 248 1.0 5.0 0.00 0.00 0.00 79 1019.0
20260509204505 49 245 0.0 4.0 0.00 0.00 0.00 78 1018.9
20260509203003 49 242 1.0 7.0 0.00 0.00 0.00 79 1018.9
20260509201601 49 225 0.0 3.0 0.00 0.00 0.00 81 1019.1
20260509200001 50 222 0.0 3.0 0.00 0.00 0.00 83 1019.1
20260509194559 50 225 0.0 2.0 0.00 0.00 0.00 85 1019.3
20260509193114 50 225 0.0 3.0 0.00 0.00 0.00 85 1019.2
20260509191612 51 209 0.0 3.0 0.00 0.00 0.00 83 1019.3
20260509190105 52 195 1.0 4.0 0.00 0.00 0.00 82 1019.2
20260509184547 52 186 0.0 4.0 0.00 0.00 0.00 80 1019.3
20260509183045 53 217 0.0 4.0 0.00 0.00 0.00 78 1019.4
20260509181541 54 176 2.0 6.0 0.00 0.00 0.00 76 1019.5
20260509180043 54 170 3.0 7.0 0.00 0.00 0.00 76 1019.4
20260509174540 55 175 2.0 8.0 0.00 0.00 0.00 75 1019.3
20260509173050 56 161 3.0 8.0 0.00 0.00 0.00 74 1019.5
20260509171542 57 159 3.0 8.0 0.00 0.00 0.00 71 1019.8
20260509170041 57 166 4.0 9.0 0.00 0.00 0.00 70 1020.0
20260509164542 58 182 4.0 9.0 0.00 0.00 0.00 68 1020.0
20260509163030 58 161 4.0 8.0 0.00 0.00 0.00 66 1020.2
20260509161528 58 166 4.0 9.0 0.00 0.00 0.00 68 1020.4
20260509160031 58 158 5.0 9.0 0.00 0.00 0.00 67 1020.6
20260509154529 58 185 5.0 10.0 0.00 0.00 0.00 68 1020.8
20260509153032 58 153 5.0 10.0 0.00 0.00 0.00 67 1020.8
20260509151526 59 155 5.0 10.0 0.00 0.00 0.00 67 1020.9
20260509150014 59 189 5.0 8.0 0.00 0.00 0.00 67 1021.0
20260509144513 59 164 5.0 9.0 0.00 0.00 0.00 66 1021.1
20260509143014 59 167 5.0 9.0 0.00 0.00 0.00 69 1021.2
20260509141518 60 130 6.0 10.0 0.00 0.00 0.00 66 1021.5
20260509140008 60 163 4.0 8.0 0.00 0.00 0.00 67 1021.7
20260509134508 60 151 5.0 11.0 0.00 0.00 0.00 67 1021.9
20260509133006 60 148 5.0 9.0 0.00 0.00 0.00 67 1022.1
20260509131509 60 142 6.0 10.0 0.00 0.00 0.00 67 1022.2
20260509130007 60 154 6.0 10.0 0.00 0.00 0.00 67 1022.2
20260509124506 60 145 5.0 10.0 0.00 0.00 0.00 67 1022.4
20260509123003 59 147 4.0 9.0 0.00 0.00 0.00 68 1022.5
20260509121600 59 148 5.0 9.0 0.00 0.00 0.00 69 1022.5
20260509120017 58 126 6.0 9.0 0.00 0.00 0.00 69 1022.7
20260509114515 58 146 6.0 9.0 0.00 0.00 0.00 70 1022.9
20260509113012 58 146 7.0 12.0 0.00 0.00 0.00 68 1023.0
20260509111511 59 168 6.0 9.0 0.00 0.00 0.00 69 1023.1
20260509104556 57 149 5.0 9.0 0.00 0.00 0.00 71 1023.1
20260509103050 56 146 5.0 7.0 0.00 0.00 0.00 73 1023.2
20260509101550 54 150 4.0 7.0 0.00 0.00 0.00 76 1023.3
20260509100008 54 156 4.0 8.0 0.00 0.00 0.00 76 1023.3
20260509094508 55 150 3.0 7.0 0.00 0.00 0.00 75 1023.3
20260509093017 55 133 3.0 5.0 0.00 0.00 0.00 75 1023.4
20260509091510 55 161 3.0 6.0 0.00 0.00 0.00 75 1023.4